Location: Carrer del Canonge
(41.4901°N, 2.2931°E)
Time: 06:13:09
(UTC+00:00)

CZ-2C R/B - Pass Details

Date: 18 September 2020
Orbit: 391 x 588 km, 35.0° (Epoch: 26 October)

Event Time Altitude Azimuth Distance (km) Brightness Sun altitude
Rises 18:57:22 0° 244° (WSW) 2,469 5.5 -12.5°
Reaches altitude 10° 18:59:49 10° 231° (SW) 1,558 4.2 -13.0°
Maximum altitude 19:02:47 25° 174° (S) 896 2.2 -13.5°
Enters shadow 19:03:59 20° 141° (SE) 1,019 2.2 -13.7°
